User: anonymous   Login
Location: Unspecified
(0.0000°N, 0.0000°E)
Time: 17:53:04
(UTC+00:00)
Language:

deb r/b Ablestar - Orbit

View from above orbital plane
View from above orbital plane
View from above satellite
View from above satellite

Ground track
Ground track

The orbit data is extracted from the following two-line orbital elements,

1 00335U 61015DM  15090.45230863  .00001503  00000-0  79441-3 0  9997
2 00335 066.8404 136.1797 0047945 311.4435 048.2543 14.15928220746956
Epoch (UTC): 31 March 2015 10:51:19
Eccentricity: 0.0047945
inclination: 66.8404°
perigee height: 804 km
apogee height: 874 km
right ascension of ascending node: 136.1797°
argument of perigee: 311.4435°
revolutions per day: 14.15928220
mean anomaly at epoch: 48.2543°
orbit number at epoch: 74695

The dashed part of the orbit path shows where the satellite is in the earth's shadow,  

DLR